Main page
METAR-TAF:

METAR-TAF

Airports :

Johnson County Executive Airport

Olathe, Kansas, United States

latitude: 38-51-00N, longitude: 094-44-21W, elevation: 1096 ft

Current weather observation

The report was made 29 minutes ago, at 08:53 UTC
Wind 10 mph from the Southeast with gusts up to 18 mph
Temperature 70°F
Humidity 83%
Pressure 29.96 in. Hg
Visibility: 10 miles
Clear sky

METAR: KOJC 140853Z AUTO 14009G16KT 10SM CLR 21/18 A2996 RMK AO2 SLP134 T02060183 50012 $

Time: 04:22 (09:22 UTC)


TAF: missing

Weather observations and forecasts of more than 4000 airports (METAR and TAF reports).

The available stations are represented by yellow and red dots on the map.

Hover mouse over dot to see the name of the station.

Then click to see weather observations and forecasts.

To change the map : click on the green buttons with a black cross to zoom in, on the green button with a dash to zoom out, or on the green arrows for adjacent maps.


METAR-TAF: